Vorticity
13 7 -1 9 26 26 33 -22 16 15 29 21 1 44 23 -2 -10 -2 8 33 4 6 8 6 8 7 9 7 7 7 7 9 9 6 7 7 7 6 4 4 4 3 3 2 3 4 4
36 26 13 40 31 7 19 22 33 25 -1 10 13 9 19 3 7 4 34 12 8 0 -2 3 8 7 8 8 7 6 9 8 5 7 6 6 6 6 6 6 5 4 4 3 4 3 2
12 19 27 3 18 10 8 26 28 17 12 -5 22 36 16 -15 -8 8 31 22 13 11 3 8 8 8 8 8 7 8 8 6 6 5 6 5 5 4 5 4 4 3 4 4 4 5 6
8 -4 29 14 17 7 4 9 23 9 10 17 -0 -6 -2 10 18 12 17 12 17 5 3 4 7 8 7 5 5 7 6 5 5 4 4 4 2 2 2 2 1 2 3 4 5 5 5
-13 9 -4 0 31 23 29 25 4 19 0 -2 4 12 0 11 22 18 12 24 5 7 7 6 6 7 6 5 6 4 4 2 2 2 1 1 1 1 2 2 4 5 5 6 6 6 7
6 -8 -2 9 6 24 9 17 3 -2 1 -1 8 -2 7 18 21 14 21 15 13 12 5 4 6 5 6 5 4 4 2 2 2 2 2 3 4 5 5 5 4 5 5 5 6 4 3
13 17 -7 5 14 15 -11 30 6 4 4 8 7 2 -1 1 5 40 20 17 11 7 9 7 8 4 6 6 5 5 4 4 3 3 4 5 4 5 5 5 6 6 6 3 4 13 17
17 -7 6 17 -1 2 12 10 15 23 13 17 14 15 24 24 21 10 29 25 12 10 4 3 5 3 7 6 6 5 4 3 2 5 4 4 4 3 8 6 3 8 13 21 18 12 5
42 -12 -16 8 12 3 -3 -1 -0 4 3 8 7 8 6 10 18 22 16 30 10 21 11 5 10 4 6 3 10 10 7 5 3 3 7 10 10 12 18 24 22 14 9 8 6 8 12
14 30 10 16 -4 8 -4 2 -1 3 3 5 4 3 3 2 4 2 15 24 17 11 12 11 8 12 5 8 7 6 11 11 15 20 22 20 16 12 8 7 7 7 12 16 25 28 19
8 10 37 11 -6 6 4 -1 -1 -7 -7 -4 -6 -4 4 8 6 3 -3 0 5 11 15 17 19 21 23 23 18 19 14 4 7 5 7 7 8 10 11 13 24 22 21 16 14 9 3
3 6 5 15 33 20 14 0 0 -9 -10 -10 -8 17 -0 1 4 0 10 10 9 10 16 7 9 7 8 3 8 6 4 5 8 9 9 14 20 24 28 12 9 12 9 9 8 5 4
9 3 3 6 6 16 22 28 20 -1 -5 -8 -3 8 9 13 8 19 15 17 13 13 11 13 10 5 8 10 11 8 19 24 23 27 14 11 9 8 8 5 3 3 5 7 5 5 12
16 9 3 3 6 6 5 11 15 25 24 21 23 15 21 20 21 20 18 18 24 20 18 17 16 17 20 23 20 8 6 6 6 7 7 6 3 8 7 6 6 9 13 11 14 12 15
7 13 10 3 4 2 8 5 5 6 7 11 14 11 8 12 13 12 12 12 10 7 9 8 7 7 6 7 8 9 8 7 5 6 8 5 7 4 8 8 10 12 11 12 16 22 13
9 5 10 11 4 5 3 3 9 8 5 6 8 7 7 6 6 8 9 13 14 17 16 14 10 8 9 9 10 11 12 15 14 13 9 10 11 11 12 11 10 8 8 10 11 22 17
5 8 4 9 14 7 3 4 3 6 8 7 5 7 7 6 6 7 10 10 7 5 5 6 8 8 7 6 4 4 4 4 4 5 6 6 5 7 5 5 4 5 5 6 6 7 7
7 5 8 4 8 18 9 3 3 2 4 5 9 5 4 3 3 6 8 9 5 4 4 4 3 2 2 4 4 5 6 6 7 7 7 7 8 9 8 8 7 7 7 7 7 6 7
7 7 7 8 2 11 19 11 7 3 3 3 3 3 4 5 6 6 5 5 7 5 3 4 3 4 3 3 5 7 7 7 5 5 7 8 7 7 4 5 8 6 7 6 6 4 2
6 6 7 9 7 -3 9 16 13 10 4 2 5 5 3 4 2 3 3 2 2 2 2 2 3 4 4 5 7 8 7 5 6 6 7 5 4 6 3 2 6 5 1 1 2 4 2
8 6 6 7 8 6 -2 6 15 14 12 10 5 4 4 5 4 3 3 3 3 2 3 2 4 4 4 4 5 7 5 5 4 3 5 5 8 1 5 1 0 4 3 1 2 2 5
6 8 6 7 8 6 6 2 4 14 15 9 9 12 7 3 3 2 3 3 3 3 3 3 4 4 5 5 6 5 4 3 5 5 3 3 3 6 9 5 4 6 4 3 6 1 3
8 5 6 8 7 9 8 3 5 6 12 12 12 9 8 11 9 5 2 3 3 3 4 3 3 3 4 2 3 4 5 3 4 3 3 6 5 3 7 6 4 5 9 12 8 13 9
9 2 10 9 0 2 5 7 4 6 8 9 10 12 11 8 7 8 10 10 8 7 6 5 5 4 6 5 5 5 5 5 5 5 6 6 8 10 12 14 21 20 13 12 13 13 3
3 13 1 -0 18 6 8 9 10 5 8 8 9 8 10 17 11 6 7 8 9 7 6 6 6 8 6 6 5 7 6 5 10 9 6 8 6 6 4 4 8 5 10 9 3 -0 10
6 19 6 15 16 14 10 15 10 9 9 10 8 11 8 8 14 13 12 11 11 9 6 5 8 7 7 7 6 4 4 6 7 8 7 7 7 7 6 7 8 14 5 2 6 8 18
12 21 10 12 16 15 21 17 12 5 8 12 8 9 10 9 7 8 11 7 9 14 15 14 12 13 13 12 10 12 18 11 8 8 6 5 6 6 4 4 10 0 4 6 8 6 6
20 16 14 9 10 13 14 11 16 11 8 9 8 6 8 6 1 4 3 3 5 5 3 4 5 6 3 7 5 10 3 17 18 13 12 11 13 12 11 12 10 6 9 6 10 10 13
4 9 5 5 9 9 6 7 11 14 10 7 7 9 8 11 7 2 -0 1 1 3 6 5 4 3 5 5 8 3 0 2 -0 5 0 9 10 5 10 4 6 5 6 3 7 9 9
Height
5646 5643 5636 5623 5615 5609 5603 5599 5598 5601 5602 5604 5613 5620 5630 5641 5650 5661 5672 5684 5697 5708 5719 5730 5740 5750 5758 5765 5772 5778 5784 5789 5794 5799 5803 5806 5809 5812 5815 5816 5817 5818 5819 5820 5820 5821 5821
5656 5652 5644 5633 5626 5620 5618 5615 5615 5616 5620 5623 5630 5639 5645 5655 5664 5673 5678 5688 5698 5710 5721 5731 5740 5750 5758 5766 5771 5777 5782 5787 5791 5796 5800 5803 5807 5810 5812 5813 5814 5814 5815 5816 5816 5816 5816
5671 5665 5658 5649 5642 5634 5631 5632 5634 5638 5637 5640 5646 5653 5659 5666 5673 5678 5684 5693 5701 5712 5723 5733 5741 5751 5758 5766 5771 5777 5781 5786 5790 5794 5798 5801 5804 5806 5808 5809 5810 5810 5811 5811 5811 5811 5811
5690 5681 5675 5668 5659 5657 5653 5649 5653 5654 5656 5657 5662 5667 5672 5677 5681 5685 5691 5699 5708 5716 5726 5735 5743 5751 5759 5765 5770 5776 5781 5785 5788 5792 5796 5798 5800 5803 5804 5806 5806 5806 5806 5806 5806 5806 5805
5703 5696 5690 5685 5678 5674 5671 5669 5668 5668 5669 5672 5673 5677 5682 5686 5690 5692 5698 5705 5714 5722 5730 5738 5746 5752 5759 5765 5770 5774 5779 5783 5787 5790 5793 5796 5798 5799 5801 5801 5802 5801 5801 5801 5800 5799 5798
5719 5713 5707 5700 5695 5690 5689 5687 5685 5683 5684 5686 5687 5690 5692 5693 5693 5696 5703 5708 5716 5724 5732 5739 5746 5755 5760 5765 5770 5774 5778 5782 5786 5788 5791 5793 5794 5795 5796 5796 5796 5796 5796 5795 5794 5794 5791
5731 5726 5721 5716 5710 5708 5704 5701 5700 5699 5699 5699 5700 5700 5699 5700 5702 5703 5708 5714 5722 5729 5734 5741 5747 5753 5759 5764 5769 5773 5777 5781 5783 5786 5788 5790 5791 5791 5792 5792 5792 5791 5790 5789 5787 5785 5784
5742 5738 5733 5728 5724 5719 5718 5715 5713 5713 5711 5709 5708 5708 5708 5708 5708 5710 5715 5719 5724 5733 5738 5743 5749 5754 5759 5764 5769 5773 5777 5780 5782 5783 5785 5787 5787 5787 5787 5787 5786 5785 5783 5782 5782 5780 5778
5752 5748 5744 5740 5737 5733 5728 5726 5725 5724 5723 5722 5722 5721 5720 5719 5718 5719 5721 5726 5733 5739 5745 5748 5752 5757 5762 5766 5769 5773 5776 5777 5779 5781 5782 5783 5784 5784 5783 5782 5781 5780 5779 5778 5777 5775 5773
5760 5757 5753 5750 5749 5746 5744 5740 5737 5735 5733 5732 5731 5730 5730 5731 5733 5731 5732 5734 5738 5743 5749 5754 5757 5760 5764 5767 5770 5772 5773 5776 5777 5779 5779 5779 5779 5779 5778 5778 5777 5775 5774 5772 5771 5770 5769
5770 5766 5762 5759 5757 5755 5753 5750 5747 5746 5744 5742 5741 5739 5739 5739 5739 5739 5742 5744 5746 5749 5753 5757 5759 5763 5765 5768 5770 5771 5772 5774 5775 5776 5777 5776 5776 5775 5775 5774 5773 5772 5771 5769 5769 5768 5767
5778 5773 5770 5767 5763 5760 5759 5757 5756 5753 5751 5749 5749 5749 5747 5746 5745 5747 5747 5748 5750 5754 5755 5759 5760 5763 5766 5767 5769 5770 5772 5773 5774 5774 5774 5774 5773 5772 5772 5772 5772 5771 5770 5769 5768 5767 5766
5785 5781 5778 5773 5770 5767 5765 5763 5762 5760 5758 5756 5754 5753 5752 5751 5752 5751 5751 5753 5755 5755 5758 5761 5762 5764 5766 5767 5769 5771 5772 5772 5773 5774 5773 5773 5772 5772 5773 5773 5772 5771 5769 5768 5767 5766 5764
5788 5786 5783 5781 5779 5775 5772 5769 5767 5765 5763 5762 5759 5758 5757 5756 5755 5754 5755 5757 5758 5759 5761 5762 5763 5764 5767 5768 5771 5772 5772 5773 5774 5774 5774 5774 5775 5773 5773 5772 5771 5769 5768 5767 5765 5764 5763
5795 5789 5787 5784 5782 5780 5779 5777 5774 5771 5770 5767 5765 5764 5763 5763 5762 5762 5762 5762 5763 5763 5764 5765 5767 5768 5770 5771 5773 5773 5774 5774 5774 5774 5775 5774 5773 5772 5771 5771 5771 5769 5768 5767 5764 5761 5761
5798 5795 5791 5787 5786 5784 5782 5781 5780 5778 5776 5774 5773 5772 5770 5769 5768 5767 5767 5766 5767 5768 5768 5769 5770 5771 5773 5773 5774 5775 5775 5775 5775 5775 5775 5774 5773 5772 5771 5770 5770 5769 5768 5766 5763 5760 5759
5799 5797 5795 5792 5788 5787 5785 5783 5782 5782 5781 5779 5779 5778 5776 5775 5775 5774 5773 5773 5773 5772 5773 5774 5774 5775 5775 5776 5776 5777 5777 5777 5776 5776 5775 5774 5774 5774 5772 5771 5769 5768 5766 5764 5763 5761 5760
5800 5796 5794 5792 5792 5789 5787 5786 5785 5784 5783 5783 5782 5782 5780 5780 5780 5779 5778 5778 5778 5778 5778 5778 5779 5779 5779 5778 5778 5777 5777 5777 5776 5775 5774 5774 5773 5772 5772 5770 5768 5767 5765 5763 5762 5761 5758
5798 5796 5794 5791 5790 5788 5787 5787 5786 5785 5784 5783 5783 5783 5782 5782 5781 5781 5780 5781 5781 5780 5781 5781 5780 5780 5779 5779 5779 5778 5777 5776 5775 5775 5774 5773 5772 5770 5769 5769 5767 5765 5763 5761 5760 5758 5757
5796 5795 5792 5789 5787 5787 5785 5783 5783 5783 5782 5783 5783 5783 5782 5782 5782 5781 5780 5780 5780 5780 5780 5780 5780 5779 5779 5779 5778 5778 5777 5776 5775 5774 5773 5772 5770 5769 5768 5766 5764 5762 5760 5758 5756 5755 5753
5794 5791 5790 5788 5786 5783 5782 5781 5779 5778 5778 5779 5779 5780 5780 5781 5780 5780 5780 5779 5779 5778 5777 5777 5777 5777 5777 5776 5775 5775 5774 5773 5772 5770 5769 5768 5767 5765 5764 5761 5760 5759 5756 5752 5750 5748 5746
5789 5788 5785 5783 5782 5780 5779 5777 5776 5775 5774 5774 5774 5775 5775 5775 5776 5776 5776 5776 5775 5775 5775 5774 5774 5774 5773 5773 5773 5772 5770 5769 5768 5767 5764 5763 5763 5761 5760 5757 5754 5753 5750 5746 5743 5741 5736
5781 5780 5780 5778 5776 5775 5773 5772 5771 5770 5769 5768 5769 5768 5768 5769 5770 5770 5771 5770 5770 5770 5770 5769 5769 5769 5768 5768 5767 5766 5765 5763 5762 5761 5758 5757 5755 5752 5753 5750 5748 5748 5744 5740 5736 5733 5728
5773 5772 5771 5771 5769 5768 5767 5765 5764 5764 5764 5763 5763 5763 5762 5762 5763 5764 5763 5764 5764 5764 5763 5763 5763 5763 5763 5761 5761 5759 5758 5756 5755 5753 5751 5749 5747 5744 5743 5742 5741 5739 5736 5733 5729 5726 5722
5764 5763 5761 5761 5760 5759 5759 5757 5757 5757 5756 5757 5756 5757 5756 5755 5755 5756 5756 5756 5757 5757 5757 5757 5757 5756 5754 5753 5753 5752 5750 5749 5747 5746 5744 5741 5738 5735 5734 5733 5734 5734 5727 5725 5723 5723 5714
5753 5753 5752 5750 5750 5749 5749 5748 5748 5748 5749 5749 5750 5750 5750 5750 5749 5748 5749 5748 5747 5748 5749 5748 5748 5747 5746 5745 5744 5743 5742 5741 5739 5739 5737 5733 5730 5729 5724 5722 5725 5725 5716 5713 5710 5712 5710
5743 5743 5742 5741 5740 5739 5738 5738 5739 5739 5740 5740 5742 5742 5743 5742 5741 5742 5741 5741 5739 5740 5741 5741 5739 5738 5736 5736 5735 5734 5734 5732 5731 5730 5730 5726 5721 5720 5715 5712 5719 5713 5710 5706 5702 5701 5696
5733 5734 5734 5733 5731 5731 5731 5730 5730 5731 5731 5731 5732 5733 5735 5736 5734 5733 5733 5733 5732 5733 5732 5733 5732 5731 5728 5727 5725 5725 5724 5723 5722 5721 5718 5715 5713 5710 5706 5705 5704 5700 5695 5694 5693 5688 5686
5724 5725 5725 5725 5724 5723 5722 5721 5722 5722 5723 5723 5722 5722 5724 5726 5728 5724 5726 5724 5724 5724 5724 5723 5722 5721 5720 5718 5715 5713 5714 5715 5714 5712 5710 5705 5705 5700 5700 5695 5694 5688 5682 5678 5677 5675 5673